Regional Weather Roundup
Issued by NWS Newport/Morehead, NC

Current Version | Previous Version | Graphics & Text | Print | Product List | Glossary Off
Versions: 1 2 3 4 5 6 7 8 9 10 11 12 13 14 15 16 17 18 19 20 21 22 23 24 25 26 27 28 29 30 31 32 33 34 35 36 37 38 39 40 41 42 43 44 45 46 47 48 49 50

000
ASUS42 KMHX 050524
RWRMHX
WEATHER ROUNDUP FOR EASTERN NORTH CAROLINA
NATIONAL WEATHER SERVICE NEWPORT/MOREHEAD CITY NC
100 AM EDT TUE MAY 05 2015

NOTE: "FAIR" INDICATES FEW OR NO CLOUDS BELOW 12,000 FEET
WITH NO SIGNIFICANT WEATHER AND/OR OBSTRUCTIONS TO VISIBILITY

NCZ015>017-031-032-045>047-102-103-050600-
NORTH COAST

CITY           SKY/WX    TMP DP  RH WIND       PRES   REMARKS
EDENTON        CLEAR     63  56  78 S7        30.34S
ELIZABETH CITY CLEAR     64  54  69 S10       30.33R
KITTY HAWK     CLEAR     64  53  67 SW6       30.33S
MANTEO         CLEAR     63  54  71 SW8       30.35S

$$

NCZ045>047-081-094-103-104-050600-
CENTRAL COAST

CITY           SKY/WX    TMP DP  RH WIND       PRES   REMARKS
FRISCO         CLEAR     64  55  72 SW7       30.36R
SWANQUARTER      N/A     64 N/A N/A SW6       30.33S

$$

NCZ095-097-098-100-101-050600-
SOUTHERN COAST

CITY           SKY/WX    TMP DP  RH WIND       PRES   REMARKS
BEAUFORT       CLEAR     65  56  72 S6        30.35F
CEDAR ISLAND     N/A     63 N/A N/A S5        30.39S
JACKSONVILLE   CLEAR     57  55  93 CALM      30.35S
PINEY ISLAND   CLEAR    N/A N/A N/A SW3       30.35S
WILMINGTON     CLEAR     58  55  90 CALM      30.35S


$$

NCZ011>013-027>030-043-044-078>080-089-090>093-098-050600-
COASTAL PLAIN

CITY           SKY/WX    TMP DP  RH WIND       PRES   REMARKS
AHOSKIE        CLEAR     63  50  63 S3        30.33S
CLINTON        CLEAR     62  54  75 CALM      30.35S
ELIZABETHTOWN  CLEAR     58  54  86 CALM      30.34F
GOLDSBORO      NOT AVBL
GREENVILLE     CLEAR     64  54  68 SW8       30.35R
HAVELOCK       CLEAR     57  53  86 CALM      30.37R
KENANSVILLE    CLEAR     55  51  87 CALM      30.36S
KINSTON        CLEAR     61  54  77 S5        30.35S
NEW BERN       CLEAR     55  51  86 CALM      30.36S
RICHLANDS      CLEAR     54  48  82 CALM      30.35F
ROCKY MOUNT    CLEAR     63  53  70 S7        30.34R
WASHINGTON     CLEAR     62  54  75 CALM      30.35S
WHITEVILLE     CLEAR     56  54  91 CALM      30.34S

$$

AMZ130-135-150-152-154-156-158-170-250-252-270-ANZ085-086-088-633-658-670-050600-
MARINE OBSERVATIONS

STATION/POSITION TIME  TEMP    WIND        PRES    WAVE   SWELL
                       AIR SEA DIR/SP/G            HT/PER HT/PER
                 (UTC) (F)     (DEG/KT/KT) (MB)    (FT/S) (FT/S)
CHESAPEAKE LIGHT 0500   65     220/ 22/ 22 1026.3
64 E VA BEACH    0450   63 61  210/ 14/ 16 1026.5    3/ 9   3/ 9
DUCK             0500   66 53  200/  9/ 11 1026.3
2 E DUCK         0411      57                N/A     2/10   2/13
OREGON INLET     0500   67 68  200/  8/  8 1027.6
13E OREGON INLT  0500      59                N/A     2/12   2/12
HATTERAS CG      0400   69 66  190/  4/  7 1027.3
DIAMOND BUOY     0450   74 77  190/ 16/ 17 1027.9    3/ 9   3/ 9
CAPE LOOKOUT     0500   68     180/  5/  6 1027.6
BEAUFORT LAB     0400   66 66  170/  4/  5 1027.1
27 SE WRIGHTSVLE 0500   69 71  170/ 12/ 14   N/A
5 SE WRIGHTSVLE  NOT AVBL
225 S CAPE HAT   0450   68 70  110/ 14/ 16 1027.3    5/10   3/10
41 SE CHARLESTON 0450   73 74  110/ 14/ 16 1026.2    4/ 5   2/ 7

$$



USA.gov is the U.S. government's official web portal to all federal, state and local government web resources and services.